Location: Newark
(45.9456°N, 15.4064°E)
Time: 00:55:06
(UTC+00:00)

Vanguard 3 - Pass Details

Date: 02 February 2020
Orbit: 508 x 3263 km, 33.3° (Epoch: 20 February)

Event Time Altitude Azimuth Distance (km) Brightness Sun altitude
Rises 12:33:30 0° 208° (SSW) 5,579 12.8 24.5°
Reaches altitude 10° 12:37:22 10° 198° (SSW) 4,942 13.1 24.3°
Maximum altitude 12:49:59 32° 143° (SE) 4,275 11.4 23.4°
Drops below altitude 10° 13:05:42 10° 91° (E) 6,204 11.4 22.1°
Sets 13:11:16 0° 83° (E) 7,163 11.6 21.6°
